Total_Precipitation_Accumulation
0.26 0.21 0.25 0.28 0.24 0.28 0.41 0.41 0.32 0.10 0.06 0.08 0.09 0.08 0.08 0.08 0.08 0.08 0.07 0.07 0.06 0.06 0.09 0.11 0.13 0.18 0.22 0.27 0.28 0.27 0.28 0.39 0.54 0.64 0.75 0.83 0.88 0.90 0.92 0.92 0.85 0.84 0.84 0.82
0.27 0.15 0.21 0.23 0.16 0.16 0.17 0.17 0.15 0.08 0.05 0.04 0.05 0.06 0.07 0.08 0.09 0.10 0.09 0.09 0.07 0.06 0.07 0.08 0.10 0.14 0.19 0.23 0.24 0.25 0.26 0.28 0.41 0.57 0.70 0.78 0.84 0.93 0.94 0.96 0.96 0.91 0.87 0.82
0.51 0.18 0.39 0.43 0.17 0.13 0.12 0.12 0.13 0.15 0.13 0.07 0.04 0.05 0.08 0.10 0.12 0.13 0.11 0.10 0.08 0.07 0.07 0.08 0.09 0.11 0.16 0.21 0.22 0.21 0.21 0.23 0.30 0.40 0.57 0.68 0.77 0.87 0.99 1.00 0.98 0.97 0.89 0.81
0.85 0.58 0.78 0.35 0.12 0.11 0.13 0.16 0.16 0.17 0.14 0.10 0.06 0.06 0.08 0.13 0.15 0.12 0.12 0.11 0.09 0.08 0.08 0.09 0.08 0.09 0.14 0.17 0.20 0.21 0.19 0.19 0.22 0.28 0.41 0.56 0.71 0.80 0.91 1.01 1.01 0.95 0.90 0.83
1.20 0.87 0.44 0.14 0.11 0.16 0.18 0.20 0.18 0.16 0.12 0.08 0.04 0.04 0.07 0.08 0.11 0.12 0.11 0.11 0.10 0.09 0.10 0.09 0.07 0.08 0.12 0.13 0.17 0.18 0.18 0.18 0.17 0.20 0.30 0.44 0.58 0.71 0.81 0.93 0.97 0.94 0.87 0.80
1.32 0.96 0.42 0.16 0.10 0.11 0.15 0.24 0.16 0.14 0.14 0.11 0.08 0.10 0.09 0.09 0.09 0.10 0.10 0.10 0.10 0.10 0.10 0.08 0.07 0.09 0.12 0.12 0.14 0.15 0.16 0.15 0.15 0.17 0.22 0.33 0.46 0.59 0.74 0.86 0.92 0.92 0.90 0.82
0.99 0.79 0.34 0.15 0.11 0.11 0.27 0.32 0.17 0.15 0.15 0.13 0.14 0.14 0.11 0.08 0.08 0.10 0.10 0.10 0.11 0.11 0.11 0.09 0.08 0.11 0.15 0.13 0.13 0.16 0.16 0.15 0.13 0.14 0.18 0.26 0.40 0.53 0.70 0.82 0.91 0.91 0.86 0.85
0.63 0.75 0.40 0.16 0.16 0.27 0.31 0.19 0.16 0.14 0.12 0.12 0.11 0.08 0.07 0.07 0.08 0.09 0.09 0.10 0.13 0.13 0.12 0.11 0.11 0.14 0.18 0.16 0.15 0.17 0.16 0.15 0.14 0.14 0.16 0.24 0.39 0.52 0.65 0.79 0.92 0.93 0.87 0.89
0.43 0.33 0.20 0.18 0.21 0.22 0.20 0.18 0.15 0.14 0.11 0.10 0.09 0.08 0.06 0.06 0.07 0.08 0.09 0.10 0.13 0.15 0.14 0.13 0.14 0.17 0.20 0.19 0.19 0.17 0.16 0.15 0.15 0.16 0.18 0.23 0.34 0.49 0.68 0.78 0.88 0.94 0.86 0.85
0.29 0.17 0.14 0.13 0.15 0.16 0.16 0.15 0.13 0.12 0.12 0.10 0.09 0.08 0.07 0.06 0.07 0.08 0.10 0.11 0.12 0.14 0.15 0.17 0.18 0.20 0.20 0.21 0.21 0.18 0.17 0.16 0.16 0.19 0.23 0.25 0.33 0.44 0.62 0.77 0.86 0.95 0.88 0.79
0.24 0.15 0.13 0.11 0.10 0.10 0.11 0.11 0.10 0.10 0.10 0.10 0.09 0.07 0.07 0.07 0.08 0.10 0.11 0.11 0.12 0.13 0.15 0.19 0.23 0.22 0.21 0.22 0.23 0.20 0.19 0.18 0.18 0.22 0.26 0.30 0.37 0.45 0.55 0.65 0.81 0.96 0.88 0.81
0.23 0.15 0.16 0.11 0.07 0.06 0.07 0.08 0.09 0.09 0.08 0.08 0.08 0.07 0.06 0.07 0.09 0.11 0.13 0.11 0.11 0.13 0.14 0.17 0.22 0.23 0.22 0.22 0.23 0.23 0.22 0.21 0.23 0.27 0.28 0.31 0.40 0.50 0.59 0.63 0.70 0.72 0.78 0.83
0.14 0.12 0.11 0.09 0.07 0.05 0.05 0.05 0.06 0.07 0.06 0.06 0.06 0.06 0.06 0.07 0.09 0.13 0.13 0.11 0.11 0.12 0.14 0.17 0.21 0.23 0.23 0.24 0.26 0.26 0.26 0.26 0.28 0.30 0.29 0.31 0.37 0.49 0.61 0.67 0.73 0.73 0.73 0.77
0.07 0.09 0.10 0.07 0.07 0.05 0.04 0.04 0.04 0.05 0.05 0.05 0.06 0.07 0.06 0.07 0.08 0.12 0.13 0.12 0.12 0.12 0.14 0.17 0.21 0.25 0.24 0.25 0.28 0.29 0.29 0.32 0.35 0.34 0.32 0.34 0.40 0.49 0.60 0.70 0.78 0.81 0.82 0.84
0.06 0.07 0.08 0.06 0.05 0.05 0.04 0.05 0.05 0.06 0.06 0.06 0.07 0.08 0.08 0.08 0.08 0.10 0.12 0.13 0.15 0.14 0.15 0.17 0.20 0.25 0.26 0.27 0.28 0.29 0.31 0.34 0.38 0.40 0.37 0.38 0.43 0.52 0.60 0.66 0.71 0.76 0.82 0.97
0.08 0.07 0.06 0.06 0.07 0.06 0.05 0.05 0.06 0.07 0.07 0.08 0.08 0.07 0.08 0.09 0.09 0.11 0.14 0.16 0.18 0.17 0.16 0.16 0.18 0.23 0.28 0.31 0.31 0.31 0.31 0.39 0.43 0.44 0.43 0.44 0.48 0.54 0.61 0.68 0.70 0.73 0.75 0.82
0.16 0.11 0.09 0.08 0.08 0.07 0.06 0.06 0.07 0.08 0.09 0.09 0.09 0.09 0.09 0.10 0.09 0.11 0.15 0.17 0.19 0.19 0.17 0.16 0.17 0.21 0.27 0.30 0.33 0.35 0.35 0.38 0.45 0.45 0.45 0.49 0.54 0.59 0.65 0.72 0.72 0.71 0.68 0.71
0.17 0.15 0.13 0.14 0.14 0.12 0.09 0.07 0.08 0.10 0.11 0.11 0.10 0.10 0.11 0.11 0.11 0.13 0.17 0.19 0.22 0.22 0.18 0.17 0.18 0.23 0.27 0.29 0.33 0.36 0.39 0.41 0.45 0.47 0.50 0.55 0.60 0.63 0.68 0.73 0.71 0.70 0.70 0.75
0.14 0.14 0.13 0.14 0.15 0.17 0.14 0.11 0.10 0.10 0.11 0.12 0.13 0.13 0.13 0.13 0.13 0.15 0.21 0.23 0.26 0.25 0.22 0.21 0.23 0.26 0.27 0.31 0.39 0.37 0.41 0.46 0.51 0.52 0.54 0.61 0.65 0.62 0.66 0.71 0.72 0.71 0.71 0.73
0.15 0.14 0.15 0.15 0.15 0.17 0.17 0.13 0.11 0.12 0.12 0.15 0.16 0.15 0.15 0.16 0.17 0.20 0.24 0.26 0.26 0.26 0.25 0.27 0.27 0.29 0.31 0.36 0.41 0.40 0.44 0.49 0.56 0.59 0.59 0.60 0.64 0.66 0.67 0.72 0.76 0.75 0.72 0.71
0.19 0.18 0.19 0.19 0.17 0.15 0.17 0.17 0.17 0.16 0.16 0.17 0.20 0.21 0.22 0.22 0.21 0.22 0.27 0.28 0.26 0.27 0.29 0.31 0.32 0.36 0.40 0.44 0.46 0.45 0.48 0.51 0.58 0.64 0.66 0.66 0.68 0.69 0.70 0.74 0.78 0.75 0.73 0.72
0.25 0.24 0.24 0.23 0.21 0.19 0.19 0.21 0.23 0.23 0.22 0.21 0.23 0.24 0.27 0.26 0.23 0.22 0.24 0.30 0.32 0.35 0.34 0.32 0.36 0.43 0.48 0.51 0.48 0.47 0.49 0.52 0.60 0.66 0.68 0.70 0.73 0.75 0.74 0.75 0.77 0.74 0.72 0.72
0.32 0.31 0.30 0.29 0.28 0.27 0.25 0.26 0.29 0.32 0.31 0.30 0.31 0.32 0.32 0.30 0.28 0.30 0.30 0.31 0.35 0.40 0.40 0.39 0.45 0.52 0.56 0.54 0.51 0.51 0.53 0.57 0.63 0.70 0.72 0.74 0.75 0.75 0.76 0.76 0.75 0.74 0.74 0.75
0.36 0.36 0.35 0.34 0.32 0.32 0.33 0.34 0.35 0.36 0.38 0.38 0.38 0.39 0.39 0.37 0.33 0.33 0.38 0.41 0.43 0.47 0.46 0.47 0.52 0.58 0.62 0.59 0.57 0.58 0.63 0.65 0.70 0.77 0.77 0.77 0.79 0.78 0.76 0.77 0.76 0.73 0.71 0.73
0.39 0.38 0.37 0.35 0.36 0.39 0.43 0.43 0.41 0.41 0.40 0.42 0.41 0.41 0.43 0.45 0.46 0.43 0.44 0.47 0.48 0.50 0.49 0.51 0.56 0.61 0.64 0.65 0.64 0.66 0.69 0.73 0.83 0.89 0.85 0.82 0.80 0.80 0.77 0.77 0.75 0.73 0.73 0.74
0.42 0.43 0.45 0.46 0.47 0.49 0.51 0.50 0.50 0.49 0.47 0.46 0.44 0.45 0.47 0.48 0.48 0.49 0.51 0.50 0.51 0.54 0.53 0.54 0.56 0.62 0.68 0.70 0.69 0.70 0.75 0.82 0.90 0.89 0.82 0.80 0.79 0.80 0.79 0.77 0.74 0.72 0.72 0.74
0.43 0.44 0.46 0.46 0.47 0.52 0.56 0.58 0.58 0.58 0.57 0.55 0.54 0.53 0.53 0.53 0.52 0.52 0.53 0.51 0.52 0.54 0.58 0.62 0.65 0.70 0.76 0.77 0.78 0.78 0.82 0.85 0.87 0.88 0.87 0.84 0.82 0.81 0.79 0.77 0.75 0.74 0.74 0.73